Time,TemperatureF,DewpointF,PressureIn,WindDirection,WindDirectionDegrees,WindSpeedMPH,WindSpeedGustMPH,Humidity,HourlyPrecipIn,Conditions,Clouds,dailyrainin,SolarRadiationWatts/m^2,SoftwareType,DateUTC
2013-05-22 00:01:00,52.0,49.0,-100.00,NNW,342,4.0,13.0,88,0.01,,,0.01,1.000000,,2013-05-22 06:01:00,
2013-05-22 00:11:00,52.0,49.0,-100.00,NNW,342,4.0,13.0,88,0.01,,,0.01,1.000000,,2013-05-22 06:11:00,
2013-05-22 00:32:00,49.0,48.0,-100.00,ESE,123,1.0,4.0,96,0.02,,,0.03,1.000000,,2013-05-22 06:32:00,
2013-05-22 00:42:00,49.0,48.0,-100.00,ESE,123,1.0,4.0,96,0.02,,,0.03,1.000000,,2013-05-22 06:42:00,
2013-05-22 00:52:00,49.0,48.0,-100.00,ESE,123,1.0,4.0,96,0.02,,,0.03,1.000000,,2013-05-22 06:52:00,
2013-05-22 01:01:00,49.0,48.0,-100.00,ESE,123,1.0,4.0,96,0.02,,,0.03,1.000000,,2013-05-22 07:01:00,
2013-05-22 01:11:00,49.0,48.0,-100.00,ESE,123,1.0,4.0,96,0.02,,,0.03,1.000000,,2013-05-22 07:11:00,
2013-05-22 01:32:00,47.0,46.0,-100.00,SSE,150,2.0,2.0,97,0.00,,,0.03,1.000000,,2013-05-22 07:32:00,
2013-05-22 01:42:00,47.0,46.0,-100.00,SSE,150,2.0,2.0,97,0.00,,,0.03,1.000000,,2013-05-22 07:42:00,
2013-05-22 01:52:00,47.0,46.0,-100.00,SSE,150,2.0,2.0,97,0.00,,,0.03,1.000000,,2013-05-22 07:52:00,
2013-05-22 02:02:00,47.0,46.0,-100.00,SSE,150,2.0,2.0,97,0.00,,,0.03,1.000000,,2013-05-22 08:02:00,
2013-05-22 02:11:00,47.0,46.0,-100.00,SSE,150,2.0,2.0,97,0.00,,,0.03,1.000000,,2013-05-22 08:11:00,
2013-05-22 02:32:00,46.0,45.0,-100.00,ESE,120,1.0,3.0,97,0.00,,,-99.99,1.000000,,2013-05-22 08:32:00,
2013-05-22 02:42:00,46.0,45.0,-100.00,ESE,120,1.0,3.0,97,0.00,,,-99.99,1.000000,,2013-05-22 08:42:00,
2013-05-22 02:52:00,46.0,45.0,-100.00,ESE,120,1.0,3.0,97,0.00,,,-99.99,1.000000,,2013-05-22 08:52:00,
2013-05-22 03:01:00,46.0,45.0,-100.00,ESE,120,1.0,3.0,97,0.00,,,-99.99,1.000000,,2013-05-22 09:01:00,
2013-05-22 03:11:00,46.0,45.0,-100.00,ESE,120,1.0,3.0,97,0.00,,,-99.99,1.000000,,2013-05-22 09:11:00,
2013-05-22 03:33:00,47.0,46.0,-100.00,SE,133,2.0,4.0,98,0.01,,,0.04,1.000000,,2013-05-22 09:33:00,
2013-05-22 03:42:00,47.0,46.0,-100.00,SE,133,2.0,4.0,98,0.01,,,0.04,1.000000,,2013-05-22 09:42:00,
2013-05-22 03:53:00,47.0,46.0,-100.00,SE,133,2.0,4.0,98,0.01,,,0.04,1.000000,,2013-05-22 09:53:00,
2013-05-22 04:02:00,47.0,46.0,-100.00,SE,133,2.0,4.0,98,0.01,,,0.04,1.000000,,2013-05-22 10:02:00,
2013-05-22 04:12:00,47.0,46.0,-100.00,SE,133,2.0,4.0,98,0.01,,,0.04,1.000000,,2013-05-22 10:12:00,
2013-05-22 04:33:00,47.0,46.0,-100.00,East,82,2.0,4.0,98,0.00,,,0.04,1.000000,,2013-05-22 10:33:00,
2013-05-22 04:42:00,47.0,46.0,-100.00,East,82,2.0,4.0,98,0.00,,,0.04,1.000000,,2013-05-22 10:42:00,
2013-05-22 04:52:00,47.0,46.0,-100.00,East,82,2.0,4.0,98,0.00,,,0.04,1.000000,,2013-05-22 10:52:00,
2013-05-22 05:02:00,47.0,46.0,-100.00,East,82,2.0,4.0,98,0.00,,,0.04,1.000000,,2013-05-22 11:02:00,
2013-05-22 05:11:00,47.0,46.0,-100.00,East,82,2.0,4.0,98,0.00,,,0.04,1.000000,,2013-05-22 11:11:00,
2013-05-22 05:32:00,47.0,46.0,-100.00,NNE,15,2.0,9.0,97,0.00,,,0.04,1.000000,,2013-05-22 11:32:00,
2013-05-22 05:42:00,47.0,46.0,-100.00,NNE,15,2.0,9.0,97,0.00,,,0.04,1.000000,,2013-05-22 11:42:00,
2013-05-22 05:52:00,47.0,46.0,-100.00,NNE,15,2.0,9.0,97,0.00,,,0.04,1.000000,,2013-05-22 11:52:00,
2013-05-22 06:02:00,47.0,46.0,-100.00,NNE,15,2.0,9.0,97,0.00,,,0.04,1.000000,,2013-05-22 12:02:00,
2013-05-22 06:11:00,47.0,46.0,-100.00,NNE,15,2.0,9.0,97,0.00,,,0.04,1.000000,,2013-05-22 12:11:00,
2013-05-22 06:32:00,46.0,45.0,-100.00,North,349,1.0,4.0,97,0.00,,,0.04,1.000000,,2013-05-22 12:32:00,
2013-05-22 06:42:00,46.0,45.0,-100.00,North,349,1.0,4.0,97,0.00,,,0.04,1.000000,,2013-05-22 12:42:00,
2013-05-22 06:52:00,46.0,45.0,-100.00,North,349,1.0,4.0,97,0.00,,,0.04,1.000000,,2013-05-22 12:52:00,
2013-05-22 07:01:00,46.0,45.0,-100.00,North,349,1.0,4.0,97,0.00,,,0.04,1.000000,,2013-05-22 13:01:00,
2013-05-22 07:11:00,46.0,45.0,-100.00,North,349,1.0,4.0,97,0.00,,,0.04,1.000000,,2013-05-22 13:11:00,
2013-05-22 08:32:00,46.0,44.0,-100.00,North,2,2.0,5.0,92,-99.99,,,0.04,14.000000,,2013-05-22 14:32:00,
2013-05-22 08:42:00,46.0,44.0,-100.00,North,2,2.0,5.0,92,-99.99,,,0.04,14.000000,,2013-05-22 14:42:00,
2013-05-22 08:52:00,46.0,44.0,-100.00,North,2,2.0,5.0,92,-99.99,,,0.04,14.000000,,2013-05-22 14:52:00,
2013-05-22 09:01:00,46.0,44.0,-100.00,North,2,2.0,5.0,92,-99.99,,,0.04,14.000000,,2013-05-22 15:01:00,
2013-05-22 09:11:00,46.0,44.0,-100.00,North,2,2.0,5.0,92,-99.99,,,0.04,14.000000,,2013-05-22 15:11:00,
2013-05-22 09:33:00,48.0,44.0,-100.00,NE,47,1.0,4.0,87,0.00,,,-99.99,88.000000,,2013-05-22 15:33:00,
2013-05-22 09:43:00,48.0,44.0,-100.00,NE,47,1.0,4.0,87,0.00,,,-99.99,88.000000,,2013-05-22 15:43:00,
2013-05-22 09:53:00,48.0,44.0,-100.00,NE,47,1.0,4.0,87,0.00,,,-99.99,88.000000,,2013-05-22 15:53:00,
2013-05-22 10:03:00,48.0,44.0,-100.00,NE,47,1.0,4.0,87,0.00,,,-99.99,88.000000,,2013-05-22 16:03:00,
2013-05-22 10:12:00,48.0,44.0,-100.00,NE,47,1.0,4.0,87,0.00,,,-99.99,88.000000,,2013-05-22 16:12:00,
2013-05-22 10:33:00,51.0,43.0,-100.00,NE,51,4.0,7.0,75,0.00,,,0.04,201.000000,,2013-05-22 16:33:00,
2013-05-22 10:42:00,51.0,43.0,-100.00,NE,51,4.0,7.0,75,0.00,,,0.04,201.000000,,2013-05-22 16:42:00,
2013-05-22 10:52:00,51.0,43.0,-100.00,NE,51,4.0,7.0,75,0.00,,,0.04,201.000000,,2013-05-22 16:52:00,
2013-05-22 11:02:00,51.0,43.0,-100.00,NE,51,4.0,7.0,75,0.00,,,0.04,201.000000,,2013-05-22 17:02:00,
2013-05-22 11:11:00,51.0,43.0,-100.00,NE,51,4.0,7.0,75,0.00,,,0.04,201.000000,,2013-05-22 17:11:00,
2013-05-22 11:14:00,51.0,41.0,-100.00,NE,42,4.0,10.0,69,0.00,,,0.04,224.000000,,2013-05-22 17:14:00,
2013-05-22 11:33:00,51.0,41.0,-100.00,NE,42,4.0,10.0,69,0.00,,,0.04,224.000000,,2013-05-22 17:33:00,
2013-05-22 11:42:00,51.0,41.0,-100.00,NE,42,4.0,10.0,69,0.00,,,0.04,224.000000,,2013-05-22 17:42:00,
2013-05-22 11:53:00,51.0,41.0,-100.00,NE,42,4.0,10.0,69,0.00,,,0.04,224.000000,,2013-05-22 17:53:00,
2013-05-22 12:02:00,51.0,41.0,-100.00,NE,42,4.0,10.0,69,0.00,,,0.04,224.000000,,2013-05-22 18:02:00,
2013-05-22 12:34:00,54.0,43.0,-100.00,North,2,4.0,10.0,65,0.00,,,0.04,383.000000,,2013-05-22 18:34:00,
2013-05-22 12:42:00,54.0,43.0,-100.00,North,2,4.0,10.0,65,0.00,,,0.04,383.000000,,2013-05-22 18:42:00,
2013-05-22 12:52:00,54.0,43.0,-100.00,North,2,4.0,10.0,65,0.00,,,0.04,383.000000,,2013-05-22 18:52:00,
2013-05-22 13:02:00,54.0,43.0,-100.00,North,2,4.0,10.0,65,0.00,,,0.04,383.000000,,2013-05-22 19:02:00,
2013-05-22 13:11:00,54.0,43.0,-100.00,North,2,4.0,10.0,65,0.00,,,0.04,383.000000,,2013-05-22 19:11:00,
2013-05-22 13:32:00,58.0,40.0,-100.00,NNW,345,6.0,10.0,52,0.00,,,0.04,729.000000,,2013-05-22 19:32:00,
2013-05-22 13:42:00,58.0,40.0,-100.00,NNW,345,6.0,10.0,52,0.00,,,0.04,729.000000,,2013-05-22 19:42:00,
2013-05-22 13:52:00,58.0,40.0,-100.00,NNW,345,6.0,10.0,52,0.00,,,0.04,729.000000,,2013-05-22 19:52:00,
2013-05-22 14:02:00,58.0,40.0,-100.00,NNW,345,6.0,10.0,52,0.00,,,0.04,729.000000,,2013-05-22 20:02:00,
2013-05-22 14:11:00,58.0,40.0,-100.00,NNW,345,6.0,10.0,52,0.00,,,0.04,729.000000,,2013-05-22 20:11:00,
2013-05-22 14:32:00,58.0,41.0,-100.00,NNW,332,5.0,10.0,53,0.00,,,0.04,544.000000,,2013-05-22 20:32:00,
2013-05-22 14:42:00,58.0,41.0,-100.00,NNW,332,5.0,10.0,53,0.00,,,0.04,544.000000,,2013-05-22 20:42:00,
2013-05-22 14:52:00,58.0,41.0,-100.00,NNW,332,5.0,10.0,53,0.00,,,0.04,544.000000,,2013-05-22 20:52:00,
2013-05-22 15:01:00,58.0,41.0,-100.00,NNW,332,5.0,10.0,53,0.00,,,0.04,544.000000,,2013-05-22 21:01:00,
2013-05-22 15:11:00,58.0,41.0,-100.00,NNW,332,5.0,10.0,53,0.00,,,0.04,544.000000,,2013-05-22 21:11:00,
2013-05-22 15:33:00,59.0,33.0,-100.00,NE,39,5.0,15.0,37,0.00,,,0.04,363.000000,,2013-05-22 21:33:00,
2013-05-22 15:42:00,59.0,33.0,-100.00,NE,39,5.0,15.0,37,0.00,,,0.04,363.000000,,2013-05-22 21:42:00,
2013-05-22 15:53:00,59.0,33.0,-100.00,NE,39,5.0,15.0,37,0.00,,,0.04,363.000000,,2013-05-22 21:53:00,
2013-05-22 16:03:00,59.0,33.0,-100.00,NE,39,5.0,15.0,37,0.00,,,0.04,363.000000,,2013-05-22 22:03:00,
2013-05-22 16:12:00,59.0,33.0,-100.00,NE,39,5.0,15.0,37,0.00,,,0.04,363.000000,,2013-05-22 22:12:00,
2013-05-22 16:42:00,55.0,39.0,-100.00,North,359,6.0,16.0,55,0.00,,,0.04,293.000000,,2013-05-22 22:42:00,
2013-05-22 16:52:00,55.0,39.0,-100.00,North,359,6.0,16.0,55,0.00,,,0.04,293.000000,,2013-05-22 22:52:00,
2013-05-22 17:02:00,55.0,39.0,-100.00,North,359,6.0,16.0,55,0.00,,,0.04,293.000000,,2013-05-22 23:02:00,
2013-05-22 17:12:00,55.0,39.0,-100.00,North,359,6.0,16.0,55,0.00,,,0.04,293.000000,,2013-05-22 23:12:00,
2013-05-22 17:32:00,53.0,39.0,-100.00,North,352,4.0,13.0,60,0.00,,,0.04,313.000000,,2013-05-22 23:32:00,
2013-05-22 17:42:00,53.0,39.0,-100.00,North,352,4.0,13.0,60,0.00,,,0.04,313.000000,,2013-05-22 23:42:00,
2013-05-22 17:52:00,53.0,39.0,-100.00,North,352,4.0,13.0,60,0.00,,,0.04,313.000000,,2013-05-22 23:52:00,
2013-05-22 18:01:00,53.0,39.0,-100.00,North,352,4.0,13.0,60,0.00,,,0.04,313.000000,,2013-05-23 00:01:00,
2013-05-22 18:11:00,53.0,39.0,-100.00,North,352,4.0,13.0,60,0.00,,,0.04,313.000000,,2013-05-23 00:11:00,
2013-05-22 19:32:00,45.0,40.0,-100.00,SW,220,2.0,8.0,84,-99.99,,,0.08,149.000000,,2013-05-23 01:32:00,
2013-05-22 19:42:00,45.0,40.0,-100.00,SW,220,2.0,8.0,84,-99.99,,,0.08,149.000000,,2013-05-23 01:42:00,
2013-05-22 19:52:00,45.0,40.0,-100.00,SW,220,2.0,8.0,84,-99.99,,,0.08,149.000000,,2013-05-23 01:52:00,
2013-05-22 20:01:00,45.0,40.0,-100.00,SW,220,2.0,8.0,84,-99.99,,,0.08,149.000000,,2013-05-23 02:01:00,
2013-05-22 20:11:00,45.0,40.0,-100.00,SW,220,2.0,8.0,84,-99.99,,,0.08,149.000000,,2013-05-23 02:11:00,
2013-05-22 20:32:00,45.0,39.0,-100.00,NW,317,3.0,6.0,79,0.00,,,0.08,99.000000,,2013-05-23 02:32:00,
2013-05-22 20:42:00,45.0,39.0,-100.00,NW,317,3.0,6.0,79,0.00,,,0.08,99.000000,,2013-05-23 02:42:00,
2013-05-22 20:51:00,45.0,39.0,-100.00,NW,317,3.0,6.0,79,0.00,,,0.08,99.000000,,2013-05-23 02:51:00,
2013-05-22 21:01:00,45.0,39.0,-100.00,NW,317,3.0,6.0,79,0.00,,,0.08,99.000000,,2013-05-23 03:01:00,
2013-05-22 21:11:00,45.0,39.0,-100.00,NW,317,3.0,6.0,79,0.00,,,0.08,99.000000,,2013-05-23 03:11:00,
2013-05-22 21:33:00,43.0,38.0,-100.00,ESE,114,1.0,7.0,82,0.00,,,0.08,21.000000,,2013-05-23 03:33:00,
2013-05-22 21:43:00,43.0,38.0,-100.00,ESE,114,1.0,7.0,82,0.00,,,0.08,21.000000,,2013-05-23 03:43:00,
2013-05-22 21:53:00,43.0,38.0,-100.00,ESE,114,1.0,7.0,82,0.00,,,0.08,21.000000,,2013-05-23 03:53:00,
2013-05-22 22:02:00,43.0,38.0,-100.00,ESE,114,1.0,7.0,82,0.00,,,0.08,21.000000,,2013-05-23 04:02:00,
2013-05-22 22:12:00,43.0,38.0,-100.00,ESE,114,1.0,7.0,82,0.00,,,0.08,21.000000,,2013-05-23 04:12:00,
2013-05-22 22:33:00,42.0,37.0,-100.00,ENE,64,1.0,6.0,83,0.00,,,0.08,5.000000,,2013-05-23 04:33:00,
2013-05-22 22:43:00,42.0,37.0,-100.00,ENE,64,1.0,6.0,83,0.00,,,0.08,5.000000,,2013-05-23 04:43:00,
2013-05-22 22:52:00,42.0,37.0,-100.00,ENE,64,1.0,6.0,83,0.00,,,0.08,5.000000,,2013-05-23 04:52:00,
2013-05-22 23:02:00,42.0,37.0,-100.00,ENE,64,1.0,6.0,83,0.00,,,0.08,5.000000,,2013-05-23 05:02:00,
2013-05-22 23:11:00,42.0,37.0,-100.00,ENE,64,1.0,6.0,83,0.00,,,0.08,5.000000,,2013-05-23 05:11:00,
2013-05-22 23:32:00,41.0,37.0,-100.00,ENE,63,1.0,3.0,86,0.00,,,-99.99,1.000000,,2013-05-23 05:32:00,
2013-05-22 23:43:00,41.0,37.0,-100.00,ENE,63,1.0,3.0,86,0.00,,,-99.99,1.000000,,2013-05-23 05:43:00,
2013-05-22 23:52:00,41.0,37.0,-100.00,ENE,63,1.0,3.0,86,0.00,,,-99.99,1.000000,,2013-05-23 05:52:00,